Weather in Nozhovka

Russia / Perm Krai     57°05′21″N   54°44′40″E
temp.,
°C
wind,
m/s
gust,
m/s
humid.,
%
clouds,
%
prec.,
mm/h
press.,
hPa
HPBL,
m
28 february, sun
sun2823:00−13e51194100 0.8 1005401
02:00−15ene599599 0.3 1004310
05:00−15ene599499 0.6 1005327
08:00−16ne5994100 0.1 1005349
11:00−15ne6992100 0.3 1006405
14:00−13ne5790100 0.1 1007497
17:00−12nne6891100 0.2 1008539
20:00−13nne5994100 0.1 1010402
1 march, mon
mon123:00−15nne599491 0.2 1012307
02:00−17nne469671 0.1 1013131
05:00−18nne359871 0.1 1015100
08:00−20nne349964 0.0 101664
11:00−16nne359468 0.0 1018256
14:00−13n238592 0.0 1018461
17:00−12nw238897 0.1 1018474
20:00−18sw129888 0.0 101720
2 march, tue
tue223:00−18ssw349745 0.0 101735
02:00−19ssw499981 0.0 1014161
05:00−18ssw6119489 0.0 1011284
08:00−18s71396100 0.3 1008342
11:00−15s81394100 1.0 1005444
14:00−11s81293100 0.9 1002582
17:00−9s71192100 1.2 1000562
20:00−9s61194100 0.7 998428
3 march, wed
wed323:00−8s61194100 1.4 998350
02:00−7sse2496100 1.1 997111
05:00−10nw239898 1.6 99729
08:00−12wnw229774 0.0 99721
11:00−7w369585 0.1 998275
14:00−3w5788100 0.1 999777
17:00−4wnw6888100 0.3 1000814
20:00−7w41095100 0.2 1001414
4 march, thu
thu423:00−11w479582 0.2 100393
02:00−12w359770 0.1 100397
05:00−12wsw349780 0.1 100387
08:00−13sw339693 0.2 100387
11:00−9sw579595 0.2 1002303
14:00−6ssw6991100 0.1 1001619
17:00−6ssw71192100 0.1 999626
20:00−6ssw71494100 0.8 995823